Squaw Valley, USA 16 day weather forecast

Slopes altitude range 1890 m - 2760m

Number of lifts: 27 Pistes: 100km

In some cases the lift and piste totals shown are for the ski domain (e.g. Three Valleys) rather than individual resort (e.g. Courchevel)

Overview

The 16 day weather forecast is fully updated 4 times every day.

    • Thu 21 JUN 2018
    • Thu 21
    • 7C 17C
    • Fri 22 JUN 2018
    • Fri 22
    • 7C 9C
    • Sat 23 JUN 2018
    • Sat 23
    • 8C 10C
    • Sun 24 JUN 2018
    • Sun 24
    • 8C 12C
    • Mon 25 JUN 2018
    • Mon 25
    • 10C 11C
    • Tue 26 JUN 2018
    • Tue 26
    • 9C 11C
    • Wed 27 JUN 2018
    • Wed 27
    • 9C 10C
    • Thu 28 JUN 2018
    • Thu 28
    • 9C 10C
    • Fri 29 JUN 2018
    • Fri 29
    • 8C 10C
    • Sat 30 JUN 2018
    • Sat 30
    • 10C 12C
    • Sun 01 JUL 2018
    • Sun 01
    • 10C 12C
    • Mon 02 JUL 2018
    • Mon 02
    • 12C 27C
    • Tue 03 JUL 2018
    • Tue 03
    • 14C 28C
    • Wed 04 JUL 2018
    • Wed 04
    • 12C 24C
    • Thu 05 JUL 2018
    • Thu 05
    • 13C 27C
    • Fri 06 JUL 2018
    • Fri 06
    • 11C 24C

Date:

Time Type 0°C level Temp Chill Snow Cloud Speed Gust Dir Press
18:00 4471m 17°C 17_6 0cm 0% 6mph 10mph 1016mB
21:00 4535m 17°C 17_13 0cm 0% 13mph 16mph 1014mB
0:00 4670m 17°C 17_12 0cm 0% 12mph 15mph 1013mB
3:00 4736m 13°C 13_5 0cm 0% 5mph 7mph 1014mB
6:00 4791m 9°C 9_4 0cm 0% 4mph 5mph 1016mB
9:00 4918m 8°C 8_3 0cm 0% 3mph 4mph 1016mB
12:00 4954m 9°C 9_2 0cm 0% 2mph 3mph 1016mB
15:00 4937m 13°C 13_1 0cm 0% 1mph 1mph 1016mB
18:00 4953m 20°C 20_2 0cm 0% 2mph 4mph 1014mB
21:00 4934m 20°C 20_8 0cm 20% 8mph 10mph 1012mB
0:00 4963m 18°C 18_12 0cm 17% 12mph 15mph 1010mB
3:00 4984m 14°C 14_6 0cm 23% 6mph 8mph 1010mB
6:00 4997m 10°C 10_5 0cm 20% 5mph 6mph 1012mB
9:00 5071m 9°C 9_3 0cm 0% 3mph 5mph 1011mB
12:00 5021m 10°C 10_2 0cm 0% 2mph 3mph 1011mB
15:00 5036m 13°C 13_1 0cm 0% 1mph 1mph 1011mB
18:00 5037m 18°C 18_5 0cm 0% 5mph 5mph 1010mB
21:00 5114m 18°C 18_5 0cm 0% 5mph 6mph 1008mB
0:00 4931m 18°C 18_6 0cm 0% 6mph 7mph 1007mB
3:00 5252m 16°C 16_7 0cm 0% 7mph 11mph 1009mB
6:00 5256m 12°C 12_6 0cm 0% 6mph 8mph 1011mB
9:00 5255m 10°C 10_5 0cm 0% 5mph 6mph 1012mB
12:00 5166m 12°C 12_3 0cm 0% 3mph 4mph 1012mB
15:00 5158m 11°C 11_4 0cm 0% 4mph 6mph 1013mB
18:00 5221m 17°C 17_5 0cm 0% 5mph 6mph 1012mB
21:00 5213m 17°C 17_2 0cm 0% 2mph 5mph 1010mB
0:00 5117m 17°C 17_12 0cm 0% 12mph 12mph 1009mB
3:00 5075m 15°C 15_8 0cm 0% 8mph 11mph 1010mB
6:00 5104m 11°C 11_5 0cm 0% 5mph 7mph 1013mB
9:00 5092m 10°C 10_5 0cm 0% 5mph 7mph 1013mB
12:00 5064m 11°C 11_6 0cm 0% 6mph 7mph 1013mB
15:00 5019m 14°C 14_5 0cm 0% 5mph 7mph 1014mB
18:00 5043m 19°C 19_9 0cm 0% 9mph 13mph 1013mB
21:00 5079m 19°C 19_15 0cm 0% 15mph 18mph 1011mB
0:00 5109m 19°C 19_14 0cm 0% 14mph 20mph 1011mB
3:00 5142m 14°C 14_8 0cm 0% 8mph 14mph 1012mB
6:00 5148m 10°C 10_8 0cm 0% 8mph 10mph 1015mB
9:00 5127m 10°C 10_7 0cm 0% 7mph 8mph 1015mB
12:00 5094m 11°C 11_6 0cm 0% 6mph 8mph 1015mB
15:00 5058m 13°C 13_4 0cm 0% 4mph 6mph 1015mB
18:00 5088m 19°C 19_8 0cm 0% 8mph 13mph 1014mB
21:00 5072m 19°C 19_14 0cm 0% 14mph 17mph 1012mB
0:00 5113m 19°C 19_13 0cm 0% 13mph 17mph 1011mB
3:00 5132m 14°C 14_7 0cm 0% 7mph 10mph 1012mB
6:00 5124m 10°C 10_6 0cm 0% 6mph 8mph 1015mB
9:00 5091m 9°C 9_6 0cm 0% 6mph 7mph 1014mB
12:00 5064m 10°C 10_5 0cm 0% 5mph 7mph 1015mB
15:00 5049m 13°C 13_4 0cm 0% 4mph 6mph 1014mB
18:00 5036m 19°C 19_9 0cm 0% 9mph 13mph 1012mB
21:00 5072m 19°C 19_14 0cm 0% 14mph 18mph 1011mB
0:00 5123m 18°C 18_13 0cm 0% 13mph 18mph 1009mB
3:00 5143m 14°C 14_7 0cm 43% 7mph 11mph 1011mB
6:00 5111m 10°C 10_7 0cm 58% 7mph 9mph 1013mB
9:00 5045m 10°C 10_7 0cm 60% 7mph 8mph 1012mB
12:00 4947m 10°C 10_6 0cm 61% 6mph 8mph 1012mB
15:00 4878m 13°C 13_5 0cm 51% 5mph 6mph 1012mB
18:00 4962m 19°C 19_9 0cm 26% 9mph 13mph 1011mB
21:00 4983m 18°C 18_13 0cm 0% 13mph 16mph 1009mB
0:00 5015m 18°C 18_11 0cm 0% 11mph 14mph 1008mB
3:00 5045m 14°C 14_6 0cm 0% 6mph 7mph 1009mB
6:00 5113m 10°C 10_4 0cm 0% 4mph 5mph 1012mB
9:00 5117m 9°C 9_1 0cm 0% 1mph 2mph 1012mB
12:00 5078m 10°C 10_1 0cm 0% 1mph 1mph 1013mB
15:00 5147m 13°C 13_2 0cm 0% 2mph 3mph 1012mB
18:00 5186m 20°C 20_1 0cm 0% 1mph 4mph 1011mB
21:00 5157m 20°C 20_7 0cm 0% 7mph 7mph 1009mB
0:00 5060m 19°C 19_11 0cm 0% 11mph 12mph 1007mB
3:00 5030m 16°C 16_7 0cm 0% 7mph 10mph 1008mB
6:00 5065m 12°C 12_4 0cm 0% 4mph 5mph 1010mB
9:00 5159m 10°C 10_3 0cm 0% 3mph 4mph 1010mB
12:00 5158m 12°C 12_3 0cm 0% 3mph 4mph 1010mB
15:00 5129m 15°C 15_1 0cm 0% 1mph 2mph 1010mB
18:00 5158m 20°C 20_3 0cm 0% 3mph 6mph 1009mB
21:00 5022m 20°C 20_10 0cm 0% 10mph 11mph 1008mB
0:00 5079m 19°C 19_11 0cm 0% 11mph 13mph 1006mB
3:00 5123m 16°C 16_7 0cm 0% 7mph 10mph 1007mB
6:00 5042m 12°C 12_4 0cm 0% 4mph 5mph 1010mB
9:00 5195m 10°C 10_1 0cm 0% 1mph 2mph 1011mB
12:00 5195m 12°C 12_3 0cm 0% 3mph 4mph 1012mB
Morning 0mm 0 4709m 12°C 12_4 0cm 0% 4mph 4mph 1008mB
Afternoon 0mm 0 4873m 27°C 27_6 0cm 10% 6mph 7mph 1013mB
Morning 0mm 0 4791m 12°C 12_4 0cm 0% 4mph 3mph 1008mB
Afternoon 0.0572917mm 0.6875 4747m 28°C 28_4 0cm 67% 4mph 4mph 1012mB
Morning 0.166667mm 1.9375 4721m 14°C 14_8 0cm 84% 8mph 7mph 1009mB
Afternoon 0.078125mm 0.4375 4803m 24°C 24_1 0cm 49% 1mph 2mph 1014mB
Morning 0mm 0 4865m 12°C 12_13 0cm 4% 13mph 13mph 1010mB
Afternoon 0mm 0 4676m 27°C 27_3 0cm 45% 3mph 4mph 1013mB
Morning 0mm 0 4619m 13°C 13_11 0cm 36% 11mph 10mph 1008mB
Afternoon 0.0364583mm 0.4375 4399m 24°C 24_3 0cm 78% 3mph 4mph 1011mB
Morning 0.00520833mm 0.0625 4538m 11°C 11_8 0cm 21% 8mph 7mph 1006mB
Afternoon 0.00520833mm 0.0625 4456m 23°C 23_3 0cm 1% 3mph 4mph 1014mB

16 day outlook at a glance

Forecast issued: 21/06/2018 22:59:23

Chat

Your comments and questions. In a resort? Let us know what it's like!


Characters left 250

For terms and conditions see Readers Comments on the Cookie and privacy policy page.